Voltar ao catálogo

NOAA 17 DEB

AtivoSSO
NORAD 49479·DEBRIS·🇺🇸 United States

Lançado Jun 24, 2002 de Vandenberg Space Force Base

Loading…

Próximas Passagens (próximas 24 horas)

TLE

AtualizadoSource: Space-Track

Época: Sep 11, 2026, 14:06 UTC

1 49479U 02032DH  26254.58796453  .00000475  00000-0  13933-3 0  9994
2 49479  98.8060 302.5431 0063360 124.8278 235.8895 14.47528388277392

Acompanhe NOAA 17 DEB em tempo real com AllMySat

Download on the App Store